TimeMST,TemperatureF,Dew PointF,Humidity,Sea Level PressureIn,VisibilityMPH,Wind Direction,Wind SpeedMPH,Gust SpeedMPH,PrecipitationIn,Events,Conditions,WindDirDegrees,DateUTC
12:12 AM,6.8,1.4,79,30.01,10.0,East,12.7,-,N/A,,Overcast,80,2012-12-23 07:12:00
12:53 AM,6.1,1.0,80,30.14,10.0,East,11.5,-,N/A,,Overcast,80,2012-12-23 07:53:00
1:53 AM,7.0,1.9,80,30.13,10.0,East,15.0,-,N/A,,Overcast,90,2012-12-23 08:53:00
2:24 AM,6.8,1.4,79,29.99,10.0,East,12.7,-,N/A,,Overcast,90,2012-12-23 09:24:00
2:53 AM,7.0,1.9,80,30.14,8.0,East,12.7,-,N/A,,Overcast,90,2012-12-23 09:53:00
3:53 AM,7.0,1.9,80,30.14,7.0,East,12.7,-,0.00,,Overcast,100,2012-12-23 10:53:00
4:53 AM,6.1,1.0,80,30.14,9.0,East,13.8,-,N/A,,Overcast,90,2012-12-23 11:53:00
5:07 AM,6.8,1.4,79,29.98,9.0,East,13.8,-,N/A,,Overcast,100,2012-12-23 12:07:00
5:53 AM,6.1,1.0,80,30.16,10.0,ESE,9.2,-,N/A,,Overcast,110,2012-12-23 12:53:00
6:02 AM,6.8,1.4,79,30.00,10.0,East,8.1,-,N/A,,Overcast,90,2012-12-23 13:02:00
6:53 AM,6.1,1.0,80,30.17,9.0,East,9.2,-,N/A,,Overcast,100,2012-12-23 13:53:00
7:11 AM,6.8,1.4,79,30.01,9.0,East,6.9,-,N/A,,Overcast,100,2012-12-23 14:11:00
7:45 AM,6.8,1.4,79,30.00,10.0,East,9.2,-,N/A,,Overcast,90,2012-12-23 14:45:00
7:53 AM,6.1,1.0,80,30.17,10.0,East,9.2,-,N/A,,Overcast,100,2012-12-23 14:53:00
8:19 AM,6.8,1.4,79,30.02,1.8,East,8.1,-,0.00,Snow,Light Snow,90,2012-12-23 15:19:00
8:30 AM,6.8,1.4,79,30.02,1.2,East,6.9,-,0.00,Snow,Light Snow,100,2012-12-23 15:30:00
8:46 AM,6.8,1.4,79,30.02,0.8,East,6.9,-,0.00,Snow,Light Snow,100,2012-12-23 15:46:00
8:53 AM,6.1,1.9,83,30.19,0.5,East,6.9,-,0.00,Fog-Snow,Light Snow,90,2012-12-23 15:53:00
9:53 AM,7.0,1.9,80,30.21,0.8,East,4.6,-,0.02,Snow,Light Snow,90,2012-12-23 16:53:00
10:05 AM,6.8,3.2,85,30.05,1.0,Calm,Calm,-,0.00,Snow,Light Snow,0,2012-12-23 17:05:00
10:53 AM,8.1,1.9,76,30.21,1.0,ENE,3.5,-,0.01,Snow,Light Snow,70,2012-12-23 17:53:00
11:03 AM,8.6,3.2,79,30.05,0.8,Calm,Calm,-,0.01,Snow,Light Snow,0,2012-12-23 18:03:00
11:14 AM,8.6,3.2,79,30.05,1.2,Calm,Calm,-,0.01,Snow,Light Snow,0,2012-12-23 18:14:00
11:24 AM,8.6,3.2,79,30.05,1.5,Calm,Calm,-,0.01,Snow,Light Snow,0,2012-12-23 18:24:00
11:44 AM,8.6,3.2,79,30.04,1.0,North,5.8,-,0.01,Snow,Light Snow,10,2012-12-23 18:44:00
11:53 AM,8.1,3.0,80,30.20,2.0,NE,5.8,-,0.01,Snow,Light Snow,40,2012-12-23 18:53:00
12:02 PM,8.6,1.4,73,30.04,5.0,North,4.6,-,0.00,,Haze,10,2012-12-23 19:02:00
12:44 PM,8.6,1.4,73,30.04,6.0,WNW,4.6,-,0.00,,Haze,290,2012-12-23 19:44:00
12:53 PM,9.0,3.0,77,30.20,7.0,West,4.6,-,0.00,,Mostly Cloudy,280,2012-12-23 19:53:00
1:22 PM,8.6,3.2,79,30.04,3.0,WNW,4.6,-,0.00,,Haze,300,2012-12-23 20:22:00
1:30 PM,8.6,1.4,73,30.04,2.5,NW,4.6,-,0.00,,Haze,320,2012-12-23 20:30:00
1:38 PM,8.6,1.4,73,30.05,4.0,WNW,4.6,-,0.00,,Haze,300,2012-12-23 20:38:00
1:53 PM,9.0,1.9,73,30.20,10.0,WNW,3.5,-,0.00,,Scattered Clouds,290,2012-12-23 20:53:00
2:53 PM,7.0,1.0,77,30.21,10.0,West,5.8,-,N/A,,Partly Cloudy,280,2012-12-23 21:53:00
3:53 PM,7.0,-0.0,73,30.20,10.0,NW,3.5,-,N/A,,Clear,320,2012-12-23 22:53:00
4:53 PM,3.0,-0.9,84,30.23,10.0,West,4.6,-,N/A,,Clear,270,2012-12-23 23:53:00
5:53 PM,1.9,-0.9,88,30.24,10.0,NW,3.5,-,N/A,,Clear,320,2012-12-24 00:53:00
6:53 PM,-0.0,-4.0,83,30.24,10.0,Calm,Calm,-,N/A,,Clear,0,2012-12-24 01:53:00
7:53 PM,-2.0,-5.1,87,30.24,9.0,NNW,4.6,-,N/A,,Clear,330,2012-12-24 02:53:00
8:53 PM,-5.1,-8.0,87,30.25,10.0,North,4.6,-,N/A,,Clear,360,2012-12-24 03:53:00
9:53 PM,-6.0,-9.9,83,30.26,10.0,Calm,Calm,-,N/A,,Clear,0,2012-12-24 04:53:00
10:53 PM,-9.9,-14.1,82,30.28,10.0,NNW,3.5,-,N/A,,Clear,340,2012-12-24 05:53:00
11:53 PM,-9.0,-11.9,87,30.27,10.0,North,3.5,-,N/A,,Clear,10,2012-12-24 06:53:00